Year,Month,Day,Hour,Minute,Value (Times are PST for temperature in C)
2016,08,05,00,00,16.70
2016,08,05,00,01,16.70
2016,08,05,00,02,16.70
2016,08,05,00,03,16.70
2016,08,05,00,04,16.70
2016,08,05,00,05,16.70
2016,08,05,00,06,16.70
2016,08,05,00,07,16.70
2016,08,05,00,08,16.70
2016,08,05,00,09,16.60
2016,08,05,00,10,16.60
2016,08,05,00,11,16.60
2016,08,05,00,12,16.50
2016,08,05,00,13,16.50
2016,08,05,00,14,16.40
2016,08,05,00,15,16.40
2016,08,05,00,16,16.30
2016,08,05,00,17,16.30
2016,08,05,00,18,16.30
2016,08,05,00,19,16.30
2016,08,05,00,20,16.20
2016,08,05,00,21,16.20
2016,08,05,00,22,16.20
2016,08,05,00,23,16.20
2016,08,05,00,24,16.20
2016,08,05,00,25,16.20
2016,08,05,00,26,16.10
2016,08,05,00,27,16.10
2016,08,05,00,28,16.10
2016,08,05,00,29,16.10
2016,08,05,00,30,16.10
2016,08,05,00,31,16.00
2016,08,05,00,32,16.00
2016,08,05,00,33,16.00
2016,08,05,00,34,16.00
2016,08,05,00,35,16.00
2016,08,05,00,36,15.90
2016,08,05,00,37,15.90
2016,08,05,00,38,15.90
2016,08,05,00,39,15.90
2016,08,05,00,40,15.90
2016,08,05,00,41,15.90
2016,08,05,00,42,15.90
2016,08,05,00,43,15.90
2016,08,05,00,44,15.90
2016,08,05,00,45,15.80
2016,08,05,00,46,15.80
2016,08,05,00,47,15.80
2016,08,05,00,48,15.80
2016,08,05,00,49,15.80
2016,08,05,00,50,15.80
2016,08,05,00,51,15.80
2016,08,05,00,52,15.80
2016,08,05,00,53,15.80
2016,08,05,00,54,15.80
2016,08,05,00,55,15.80
2016,08,05,00,56,15.90
2016,08,05,00,57,15.90
2016,08,05,00,58,16.00
2016,08,05,00,59,16.00
2016,08,05,01,00,16.10
2016,08,05,01,01,16.10
2016,08,05,01,02,16.20
2016,08,05,01,03,16.30
2016,08,05,01,04,16.30
2016,08,05,01,05,16.30
2016,08,05,01,06,16.40
2016,08,05,01,07,16.50
2016,08,05,01,08,16.50
2016,08,05,01,09,16.60
2016,08,05,01,10,16.60
2016,08,05,01,11,16.70
2016,08,05,01,12,16.80
2016,08,05,01,13,16.80
2016,08,05,01,14,16.90
2016,08,05,01,15,16.90
2016,08,05,01,16,17.00
2016,08,05,01,17,17.00
2016,08,05,01,18,17.10
2016,08,05,01,19,17.20
2016,08,05,01,20,17.20
2016,08,05,01,21,17.20
2016,08,05,01,22,17.20
2016,08,05,01,23,17.20
2016,08,05,01,24,17.20
2016,08,05,01,25,17.20
2016,08,05,01,26,17.20
2016,08,05,01,27,17.20
2016,08,05,01,28,17.20
2016,08,05,01,29,17.20
2016,08,05,01,30,17.20
2016,08,05,01,31,17.20
2016,08,05,01,32,17.20
2016,08,05,01,33,17.20
2016,08,05,01,34,17.20
2016,08,05,01,35,17.20
2016,08,05,01,36,17.10
2016,08,05,01,37,17.10
2016,08,05,01,38,17.10
2016,08,05,01,39,17.00
2016,08,05,01,40,17.00
2016,08,05,01,41,16.90
2016,08,05,01,42,16.90
2016,08,05,01,43,16.80
2016,08,05,01,44,16.80
2016,08,05,01,45,16.70
2016,08,05,01,46,16.60
2016,08,05,01,47,16.60
2016,08,05,01,48,16.60
2016,08,05,01,49,16.40
2016,08,05,01,50,16.20
2016,08,05,01,51,16.20
2016,08,05,01,52,16.20
2016,08,05,01,53,16.10
2016,08,05,01,54,16.10
2016,08,05,01,55,16.10
2016,08,05,01,56,16.10
2016,08,05,01,57,16.10
2016,08,05,01,58,16.10
2016,08,05,01,59,16.10
2016,08,05,02,00,16.00
2016,08,05,02,01,16.00
2016,08,05,02,02,16.00
2016,08,05,02,03,16.00
2016,08,05,02,04,16.00
2016,08,05,02,05,15.90
2016,08,05,02,06,15.90
2016,08,05,02,07,15.80
2016,08,05,02,08,15.80
2016,08,05,02,09,15.70
2016,08,05,02,10,15.70
2016,08,05,02,11,15.70
2016,08,05,02,12,15.60
2016,08,05,02,13,15.60
2016,08,05,02,14,15.60
2016,08,05,02,15,15.50
2016,08,05,02,16,15.50
2016,08,05,02,17,15.40
2016,08,05,02,18,15.40
2016,08,05,02,19,15.40
2016,08,05,02,20,15.40
2016,08,05,02,21,15.40
2016,08,05,02,22,15.40
2016,08,05,02,23,15.40
2016,08,05,02,24,15.40
2016,08,05,02,25,15.50
2016,08,05,02,26,15.50
2016,08,05,02,27,15.50
2016,08,05,02,28,15.50
2016,08,05,02,29,15.50
2016,08,05,02,30,15.50
2016,08,05,02,31,15.50
2016,08,05,02,32,15.40
2016,08,05,02,33,15.40
2016,08,05,02,34,15.40
2016,08,05,02,35,15.30
2016,08,05,02,36,15.30
2016,08,05,02,37,15.30
2016,08,05,02,38,15.20
2016,08,05,02,39,15.20
2016,08,05,02,40,15.10
2016,08,05,02,41,15.10
2016,08,05,02,42,15.00
2016,08,05,02,43,15.00
2016,08,05,02,44,14.90
2016,08,05,02,45,14.90
2016,08,05,02,46,14.90
2016,08,05,02,47,14.90
2016,08,05,02,48,14.90
2016,08,05,02,49,15.00
2016,08,05,02,50,15.00
2016,08,05,02,51,15.00
2016,08,05,02,52,15.00
2016,08,05,02,53,15.00
2016,08,05,02,54,15.00
2016,08,05,02,55,15.00
2016,08,05,02,56,14.90
2016,08,05,02,57,14.90
2016,08,05,02,58,15.00
2016,08,05,02,59,15.00
2016,08,05,03,00,15.10
2016,08,05,03,01,15.20
2016,08,05,03,02,15.30
2016,08,05,03,06,15.70
2016,08,05,03,07,15.80
2016,08,05,03,08,15.80
2016,08,05,03,09,15.80
2016,08,05,03,10,15.80
2016,08,05,03,11,15.90
2016,08,05,03,12,15.90
2016,08,05,03,13,15.80
2016,08,05,03,14,15.80
2016,08,05,03,15,15.80
2016,08,05,03,16,15.80
2016,08,05,03,17,15.80
2016,08,05,03,18,15.80
2016,08,05,03,19,15.80
2016,08,05,03,20,15.80
2016,08,05,03,21,15.80
2016,08,05,03,22,15.80
2016,08,05,03,23,15.80
2016,08,05,03,24,15.80
2016,08,05,03,25,15.70
2016,08,05,03,26,15.70
2016,08,05,03,27,15.70
2016,08,05,03,28,15.60
2016,08,05,03,29,15.50
2016,08,05,03,30,15.50
2016,08,05,03,31,15.40
2016,08,05,03,32,15.40
2016,08,05,03,33,15.30
2016,08,05,03,34,15.30
2016,08,05,03,35,15.20
2016,08,05,03,36,15.20
2016,08,05,03,37,15.10
2016,08,05,03,38,15.10
2016,08,05,03,39,15.00
2016,08,05,03,40,15.00
2016,08,05,03,41,14.90
2016,08,05,03,42,14.90
2016,08,05,03,43,14.80
2016,08,05,03,44,14.80
2016,08,05,03,45,14.70
2016,08,05,03,46,14.70
2016,08,05,03,47,14.60
2016,08,05,03,48,14.60
2016,08,05,03,49,14.60
2016,08,05,03,50,14.50
2016,08,05,03,51,14.50
2016,08,05,03,52,14.50
2016,08,05,03,53,14.40
2016,08,05,03,54,14.40
2016,08,05,03,55,14.40
2016,08,05,03,56,14.30
2016,08,05,03,57,14.20
2016,08,05,03,58,14.20
2016,08,05,03,59,14.20
2016,08,05,04,00,14.10
2016,08,05,04,01,14.10
2016,08,05,04,02,14.10
2016,08,05,04,03,14.10
2016,08,05,04,04,14.10
2016,08,05,04,05,14.10
2016,08,05,04,06,14.10
2016,08,05,04,07,14.10
2016,08,05,04,08,14.10
2016,08,05,04,09,14.10
2016,08,05,04,10,14.10
2016,08,05,04,11,14.10
2016,08,05,04,12,14.10
2016,08,05,04,13,14.10
2016,08,05,04,14,14.10
2016,08,05,04,15,14.10
2016,08,05,04,16,14.10
2016,08,05,04,17,14.10
2016,08,05,04,18,14.10
2016,08,05,04,19,14.10
2016,08,05,04,20,14.10
2016,08,05,04,21,14.00
2016,08,05,04,22,14.00
2016,08,05,04,23,14.00
2016,08,05,04,24,14.00
2016,08,05,04,25,14.00
2016,08,05,04,26,14.00
2016,08,05,04,27,14.00
2016,08,05,04,28,13.90
2016,08,05,04,29,13.90
2016,08,05,04,30,13.90
2016,08,05,04,31,13.90
2016,08,05,04,32,13.90
2016,08,05,04,33,13.90
2016,08,05,04,34,13.80
2016,08,05,04,35,13.80
2016,08,05,04,36,13.80
2016,08,05,04,37,13.80
2016,08,05,04,38,13.80
2016,08,05,04,39,13.80
2016,08,05,04,40,13.80
2016,08,05,04,41,13.80
2016,08,05,04,42,13.70
2016,08,05,04,43,13.70
2016,08,05,04,44,13.70
2016,08,05,04,45,13.60
2016,08,05,04,46,13.60
2016,08,05,04,47,13.60
2016,08,05,04,48,13.50
2016,08,05,04,49,13.50
2016,08,05,04,50,13.50
2016,08,05,04,51,13.40
2016,08,05,04,52,13.40
2016,08,05,04,53,13.40
2016,08,05,04,54,13.40
2016,08,05,04,55,13.30
2016,08,05,04,56,13.30
2016,08,05,04,57,13.30
2016,08,05,04,58,13.30
2016,08,05,04,59,13.30
2016,08,05,05,00,13.30
2016,08,05,05,01,13.20
2016,08,05,05,02,13.30
2016,08,05,05,03,13.30
2016,08,05,05,04,13.30
2016,08,05,05,05,13.30
2016,08,05,05,06,13.30
2016,08,05,05,07,13.30
2016,08,05,05,08,13.30
2016,08,05,05,09,13.30
2016,08,05,05,10,13.30
2016,08,05,05,11,13.30
2016,08,05,05,12,13.30
2016,08,05,05,13,13.20
2016,08,05,05,14,13.20
2016,08,05,05,15,13.20
2016,08,05,05,16,13.20
2016,08,05,05,17,13.10
2016,08,05,05,18,13.10
2016,08,05,05,19,13.10
2016,08,05,05,20,13.10
2016,08,05,05,21,13.10
2016,08,05,05,22,13.10
2016,08,05,05,23,13.10
2016,08,05,05,24,13.10
2016,08,05,05,25,13.10
2016,08,05,05,26,13.10
2016,08,05,05,27,13.10
2016,08,05,05,28,13.10
2016,08,05,05,29,13.10
2016,08,05,05,30,13.00
2016,08,05,05,31,13.00
2016,08,05,05,32,13.00
2016,08,05,05,33,13.00
2016,08,05,05,34,13.00
2016,08,05,05,35,13.00
2016,08,05,05,36,12.90
2016,08,05,05,37,12.90
2016,08,05,05,38,12.90
2016,08,05,05,39,12.90
2016,08,05,05,40,12.90
2016,08,05,05,41,12.90
2016,08,05,05,42,12.90
2016,08,05,05,43,12.90
2016,08,05,05,44,12.90
2016,08,05,05,45,12.90
2016,08,05,05,46,12.90
2016,08,05,05,47,12.90
2016,08,05,05,48,12.90
2016,08,05,05,49,12.90
2016,08,05,05,50,12.90
2016,08,05,05,51,12.90
2016,08,05,05,52,12.80
2016,08,05,05,53,12.90
2016,08,05,05,54,12.80
2016,08,05,05,55,12.80
2016,08,05,05,56,12.80
2016,08,05,05,57,12.80
2016,08,05,05,58,12.80
2016,08,05,05,59,12.80
2016,08,05,06,00,12.80
2016,08,05,06,01,12.80
2016,08,05,06,02,12.80
2016,08,05,06,03,12.80
2016,08,05,06,04,12.80
2016,08,05,06,05,12.80
2016,08,05,06,06,12.80
2016,08,05,06,07,12.80
2016,08,05,06,08,12.80
2016,08,05,06,09,12.80
2016,08,05,06,10,12.80
2016,08,05,06,11,12.70
2016,08,05,06,12,12.70
2016,08,05,06,13,12.70
2016,08,05,06,14,12.70
2016,08,05,06,15,12.70
2016,08,05,06,16,12.70
2016,08,05,06,17,12.70
2016,08,05,06,18,12.70
2016,08,05,06,19,12.70
2016,08,05,06,20,12.70
2016,08,05,06,21,12.70
2016,08,05,06,22,12.60
2016,08,05,06,23,12.60
2016,08,05,06,24,12.70
2016,08,05,06,25,12.70
2016,08,05,06,26,12.70
2016,08,05,06,27,12.70
2016,08,05,06,28,12.70
2016,08,05,06,29,12.70
2016,08,05,06,30,12.70
2016,08,05,06,31,12.60
2016,08,05,06,32,12.60
2016,08,05,06,33,12.60
2016,08,05,06,34,12.60
2016,08,05,06,35,12.60
2016,08,05,06,36,12.70
2016,08,05,06,37,12.70
2016,08,05,06,38,12.70
2016,08,05,06,39,12.70
2016,08,05,06,40,12.80
2016,08,05,06,41,12.80
2016,08,05,06,42,12.80
2016,08,05,06,43,12.80
2016,08,05,06,44,12.90
2016,08,05,06,45,12.90
2016,08,05,06,46,12.90
2016,08,05,06,47,13.00
2016,08,05,06,48,13.00
2016,08,05,06,49,13.10
2016,08,05,06,50,13.10
2016,08,05,06,51,13.10
2016,08,05,06,52,13.10
2016,08,05,06,53,13.20
2016,08,05,06,54,13.20
2016,08,05,06,55,13.20
2016,08,05,06,56,13.20
2016,08,05,06,57,13.20
2016,08,05,06,58,13.20
2016,08,05,06,59,13.20
2016,08,05,07,00,13.20
2016,08,05,07,01,13.20
2016,08,05,07,02,13.20
2016,08,05,07,03,13.20
2016,08,05,07,04,13.20
2016,08,05,07,05,13.20
2016,08,05,07,06,13.20
2016,08,05,07,07,13.20
2016,08,05,07,08,13.20
2016,08,05,07,09,13.20
2016,08,05,07,10,13.30
2016,08,05,07,11,13.30
2016,08,05,07,12,13.40
2016,08,05,07,13,13.40
2016,08,05,07,14,13.50
2016,08,05,07,15,13.50
2016,08,05,07,16,13.60
2016,08,05,07,17,13.60
2016,08,05,07,18,13.70
2016,08,05,07,19,13.70
2016,08,05,07,20,13.70
2016,08,05,07,21,13.80
2016,08,05,07,22,13.80
2016,08,05,07,23,13.80
2016,08,05,07,24,13.80
2016,08,05,07,25,13.80
2016,08,05,07,26,13.80
2016,08,05,07,27,13.80
2016,08,05,07,28,13.80
2016,08,05,07,29,13.80
2016,08,05,07,30,13.90
2016,08,05,07,31,13.90
2016,08,05,07,32,13.90
2016,08,05,07,33,13.90
2016,08,05,07,34,14.00
2016,08,05,07,35,14.00
2016,08,05,07,36,14.10
2016,08,05,07,37,14.10
2016,08,05,07,38,14.20
2016,08,05,07,39,14.20
2016,08,05,07,40,14.30
2016,08,05,07,41,14.30
2016,08,05,07,42,14.20
2016,08,05,07,43,14.10
2016,08,05,07,44,14.00
2016,08,05,07,45,13.90
2016,08,05,07,46,13.80
2016,08,05,07,47,13.80
2016,08,05,07,48,13.70
2016,08,05,07,49,13.70
2016,08,05,07,50,13.70
2016,08,05,07,51,13.60
2016,08,05,07,52,13.60
2016,08,05,07,53,13.60
2016,08,05,07,54,13.60
2016,08,05,07,55,13.60
2016,08,05,07,56,13.60
2016,08,05,07,57,13.60
2016,08,05,07,58,13.70
2016,08,05,07,59,13.70
2016,08,05,08,00,13.70
2016,08,05,08,01,13.70
2016,08,05,08,02,13.70
2016,08,05,08,03,13.70
2016,08,05,08,04,13.70
2016,08,05,08,05,13.80
2016,08,05,08,06,13.80
2016,08,05,08,07,13.80
2016,08,05,08,08,13.90
2016,08,05,08,09,13.90
2016,08,05,08,10,13.90
2016,08,05,08,11,14.00
2016,08,05,08,12,14.00
2016,08,05,08,13,14.10
2016,08,05,08,14,14.10
2016,08,05,08,15,14.10
2016,08,05,08,16,14.10
2016,08,05,08,17,14.20
2016,08,05,08,18,14.20
2016,08,05,08,19,14.20
2016,08,05,08,20,14.20
2016,08,05,08,21,14.30
2016,08,05,08,22,14.30
2016,08,05,08,23,14.30
2016,08,05,08,24,14.30
2016,08,05,08,25,14.30
2016,08,05,08,26,14.30
2016,08,05,08,27,14.30
2016,08,05,08,28,14.30
2016,08,05,08,29,14.30
2016,08,05,08,30,14.30
2016,08,05,08,31,14.30
2016,08,05,08,32,14.30
2016,08,05,08,33,14.30
2016,08,05,08,34,14.30
2016,08,05,08,35,14.40
2016,08,05,08,36,14.40
2016,08,05,08,37,14.50
2016,08,05,08,38,14.50
2016,08,05,08,39,14.70
2016,08,05,08,40,14.70
2016,08,05,08,41,14.80
2016,08,05,08,42,14.90
2016,08,05,08,43,15.00
2016,08,05,08,44,15.00
2016,08,05,08,45,15.10
2016,08,05,08,46,15.20
2016,08,05,08,47,15.20
2016,08,05,08,48,15.30
2016,08,05,08,49,15.40
2016,08,05,08,50,15.50
2016,08,05,08,51,15.60
2016,08,05,08,52,15.60
2016,08,05,08,53,15.70
2016,08,05,08,54,15.80
2016,08,05,08,55,15.80
2016,08,05,08,56,15.80
2016,08,05,08,57,15.70
2016,08,05,08,58,15.70
2016,08,05,08,59,15.70
2016,08,05,09,00,15.70
2016,08,05,09,01,15.70
2016,08,05,09,02,15.70
2016,08,05,09,03,15.80
2016,08,05,09,04,15.80
2016,08,05,09,05,15.80
2016,08,05,09,06,16.00
2016,08,05,09,07,16.00
2016,08,05,09,08,16.10
2016,08,05,09,09,16.10
2016,08,05,09,10,16.20
2016,08,05,09,11,16.20
2016,08,05,09,12,16.20
2016,08,05,09,13,16.20
2016,08,05,09,14,16.30
2016,08,05,09,15,16.30
2016,08,05,09,16,16.30
2016,08,05,09,17,16.30
2016,08,05,09,18,16.40
2016,08,05,09,19,16.40
2016,08,05,09,20,16.50
2016,08,05,09,21,16.60
2016,08,05,09,22,16.60
2016,08,05,09,23,16.60
2016,08,05,09,24,16.60
2016,08,05,09,25,16.60
2016,08,05,09,26,16.60
2016,08,05,09,27,16.60
2016,08,05,09,28,16.60
2016,08,05,09,29,16.60
2016,08,05,09,30,16.60
2016,08,05,09,31,16.60
2016,08,05,09,32,16.60
2016,08,05,09,33,16.70
2016,08,05,09,34,16.80
2016,08,05,09,35,16.80
2016,08,05,09,36,16.80
2016,08,05,09,37,16.90
2016,08,05,09,38,16.90
2016,08,05,09,39,17.00
2016,08,05,09,40,17.00
2016,08,05,09,41,17.00
2016,08,05,09,42,17.00
2016,08,05,09,43,17.00
2016,08,05,09,44,17.10
2016,08,05,09,45,17.10
2016,08,05,09,46,17.20
2016,08,05,09,47,17.20
2016,08,05,09,48,17.30
2016,08,05,09,49,17.30
2016,08,05,09,50,17.30
2016,08,05,09,51,17.30
2016,08,05,09,52,17.30
2016,08,05,09,53,17.40
2016,08,05,09,54,17.50
2016,08,05,09,55,17.50
2016,08,05,09,56,17.60
2016,08,05,09,57,17.70
2016,08,05,09,58,17.70
2016,08,05,09,59,17.60
2016,08,05,10,00,17.60
2016,08,05,10,01,17.60
2016,08,05,10,02,17.60
2016,08,05,10,03,17.60
2016,08,05,10,04,17.50
2016,08,05,10,05,17.50
2016,08,05,10,06,17.50
2016,08,05,10,07,17.50
2016,08,05,10,08,17.50
2016,08,05,10,09,17.60
2016,08,05,10,10,17.60
2016,08,05,10,11,17.70
2016,08,05,10,12,17.80
2016,08,05,10,13,17.80
2016,08,05,10,14,17.80
2016,08,05,10,15,17.80
2016,08,05,10,16,17.80
2016,08,05,10,17,17.90
2016,08,05,10,18,17.90
2016,08,05,10,19,18.00
2016,08,05,10,20,18.00
2016,08,05,10,21,18.00
2016,08,05,10,22,18.00
2016,08,05,10,23,18.10
2016,08,05,10,24,18.10
2016,08,05,10,25,18.10
2016,08,05,10,26,18.20
2016,08,05,10,27,18.20
2016,08,05,10,28,18.30
2016,08,05,10,29,18.40
2016,08,05,10,30,18.50
2016,08,05,10,31,18.60
2016,08,05,10,32,18.60
2016,08,05,10,33,18.70
2016,08,05,10,34,18.80
2016,08,05,10,35,18.90
2016,08,05,10,36,19.00
2016,08,05,10,37,19.10
2016,08,05,10,38,19.20
2016,08,05,10,39,19.30
2016,08,05,10,40,19.30
2016,08,05,10,41,19.30
2016,08,05,10,42,19.30
2016,08,05,10,43,19.20
2016,08,05,10,44,19.10
2016,08,05,10,45,19.10
2016,08,05,10,46,19.10
2016,08,05,10,47,19.00
2016,08,05,10,48,18.90
2016,08,05,10,49,18.80
2016,08,05,10,50,18.80
2016,08,05,10,51,18.80
2016,08,05,10,52,18.80
2016,08,05,10,53,18.80
2016,08,05,10,54,18.80
2016,08,05,10,55,18.90
2016,08,05,10,56,18.90
2016,08,05,10,57,18.90
2016,08,05,10,58,18.90
2016,08,05,10,59,18.90
2016,08,05,11,00,18.90
2016,08,05,11,01,18.90
2016,08,05,11,02,18.90
2016,08,05,11,03,18.90
2016,08,05,11,04,18.90
2016,08,05,11,05,19.00
2016,08,05,11,06,19.00
2016,08,05,11,07,19.10
2016,08,05,11,08,19.00
2016,08,05,11,09,19.00
2016,08,05,11,10,18.90
2016,08,05,11,11,18.90
2016,08,05,11,12,18.80
2016,08,05,11,13,18.80
2016,08,05,11,14,18.90
2016,08,05,11,15,18.90
2016,08,05,11,16,18.90
2016,08,05,11,17,18.90
2016,08,05,11,18,18.90
2016,08,05,11,19,19.00
2016,08,05,11,20,19.00
2016,08,05,11,21,19.00
2016,08,05,11,22,19.10
2016,08,05,11,23,19.10
2016,08,05,11,24,19.10
2016,08,05,11,25,19.20
2016,08,05,11,26,19.20
2016,08,05,11,27,19.30
2016,08,05,11,28,19.30
2016,08,05,11,29,19.30
2016,08,05,11,30,19.40
2016,08,05,11,31,19.40
2016,08,05,11,32,19.50
2016,08,05,11,33,19.50
2016,08,05,11,34,19.50
2016,08,05,11,35,19.50
2016,08,05,11,36,19.50
2016,08,05,11,37,19.50
2016,08,05,11,38,19.60
2016,08,05,11,39,19.60
2016,08,05,11,40,19.60
2016,08,05,11,41,19.60
2016,08,05,11,42,19.60
2016,08,05,11,43,19.60
2016,08,05,11,44,19.60
2016,08,05,11,45,19.60
2016,08,05,11,46,19.60
2016,08,05,11,47,19.60
2016,08,05,11,48,19.50
2016,08,05,11,49,19.50
2016,08,05,11,50,19.40
2016,08,05,11,51,19.40
2016,08,05,11,52,19.30
2016,08,05,11,53,19.30
2016,08,05,11,54,19.30
2016,08,05,11,55,19.30
2016,08,05,11,56,19.40
2016,08,05,11,57,19.50
2016,08,05,11,58,19.50
2016,08,05,11,59,19.70
2016,08,05,12,00,19.80
2016,08,05,12,01,20.00
2016,08,05,12,02,20.20
2016,08,05,12,03,20.30
2016,08,05,12,04,20.50
2016,08,05,12,05,20.60
2016,08,05,12,06,20.80
2016,08,05,12,07,20.90
2016,08,05,12,08,20.90
2016,08,05,12,09,20.90
2016,08,05,12,10,21.00
2016,08,05,12,11,21.00
2016,08,05,12,12,21.00
2016,08,05,12,13,21.00
2016,08,05,12,14,21.00
2016,08,05,12,15,20.90
2016,08,05,12,16,21.00
2016,08,05,12,17,21.10
2016,08,05,12,18,21.10
2016,08,05,12,19,21.20
2016,08,05,12,20,21.40
2016,08,05,12,21,21.40
2016,08,05,12,22,21.40
2016,08,05,12,23,21.40
2016,08,05,12,24,21.40
2016,08,05,12,25,21.30
2016,08,05,12,26,21.20
2016,08,05,12,27,21.20
2016,08,05,12,28,21.20
2016,08,05,12,29,21.20
2016,08,05,12,30,21.20
2016,08,05,12,31,21.30
2016,08,05,12,32,21.20
2016,08,05,12,33,21.30
2016,08,05,12,34,21.30
2016,08,05,12,35,21.40
2016,08,05,12,36,21.50
2016,08,05,12,37,21.50
2016,08,05,12,38,21.60
2016,08,05,12,39,21.60
2016,08,05,12,40,21.60
2016,08,05,12,41,21.60
2016,08,05,12,42,21.50
2016,08,05,12,43,21.40
2016,08,05,12,44,21.40
2016,08,05,12,45,21.40
2016,08,05,12,46,21.40
2016,08,05,12,47,21.40
2016,08,05,12,48,21.50
2016,08,05,12,49,21.50
2016,08,05,12,50,21.70
2016,08,05,12,51,21.80
2016,08,05,12,52,21.90
2016,08,05,12,53,21.90
2016,08,05,12,54,21.90
2016,08,05,12,55,21.90
2016,08,05,12,56,21.90
2016,08,05,12,57,22.00
2016,08,05,12,58,22.00
2016,08,05,12,59,22.10
2016,08,05,13,00,22.30
2016,08,05,13,01,22.30
2016,08,05,13,02,22.30
2016,08,05,13,03,22.40
2016,08,05,13,04,22.40
2016,08,05,13,05,22.40
2016,08,05,13,06,22.40
2016,08,05,13,07,22.40
2016,08,05,13,08,22.40
2016,08,05,13,09,22.30
2016,08,05,13,10,22.40
2016,08,05,13,11,22.40
2016,08,05,13,12,22.40
2016,08,05,13,13,22.40
2016,08,05,13,14,22.40
2016,08,05,13,15,22.30
2016,08,05,13,16,22.20
2016,08,05,13,17,22.10
2016,08,05,13,18,22.10
2016,08,05,13,19,22.10
2016,08,05,13,20,22.10
2016,08,05,13,21,22.20
2016,08,05,13,22,22.30
2016,08,05,13,23,22.30
2016,08,05,13,24,22.30
2016,08,05,13,25,22.30
2016,08,05,13,26,22.30
2016,08,05,13,27,22.30
2016,08,05,13,28,22.30
2016,08,05,13,29,22.20
2016,08,05,13,30,22.10
2016,08,05,13,31,22.10
2016,08,05,13,32,22.10
2016,08,05,13,33,22.10
2016,08,05,13,34,22.10
2016,08,05,13,35,22.00
2016,08,05,13,36,22.00
2016,08,05,13,37,21.90
2016,08,05,13,38,21.70
2016,08,05,13,39,21.80
2016,08,05,13,40,21.80
2016,08,05,13,41,21.80
2016,08,05,13,42,21.80
2016,08,05,13,43,21.70
2016,08,05,13,44,21.80
2016,08,05,13,45,21.80
2016,08,05,13,46,21.90
2016,08,05,13,47,21.90
2016,08,05,13,48,22.00
2016,08,05,13,49,22.00
2016,08,05,13,50,21.90
2016,08,05,13,51,21.80
2016,08,05,13,52,21.80
2016,08,05,13,53,21.80
2016,08,05,13,54,21.90
2016,08,05,13,55,21.90
2016,08,05,13,56,21.90
2016,08,05,13,57,21.90
2016,08,05,13,58,21.90
2016,08,05,13,59,21.80
2016,08,05,14,00,21.80
2016,08,05,14,01,21.90
2016,08,05,14,02,21.90
2016,08,05,14,03,21.90
2016,08,05,14,04,21.90
2016,08,05,14,05,21.90
2016,08,05,14,06,21.80
2016,08,05,14,07,21.80
2016,08,05,14,08,21.80
2016,08,05,14,09,21.80
2016,08,05,14,10,21.90
2016,08,05,14,11,22.00
2016,08,05,14,12,22.10
2016,08,05,14,13,22.10
2016,08,05,14,14,22.20
2016,08,05,14,15,22.20
2016,08,05,14,16,22.20
2016,08,05,14,17,22.20
2016,08,05,14,18,22.20
2016,08,05,14,19,22.20
2016,08,05,14,20,22.20
2016,08,05,14,21,22.20
2016,08,05,14,22,22.30
2016,08,05,14,23,22.50
2016,08,05,14,24,22.50
2016,08,05,14,25,22.40
2016,08,05,14,26,22.40
2016,08,05,14,27,22.50
2016,08,05,14,28,22.60
2016,08,05,14,29,22.60
2016,08,05,14,30,22.60
2016,08,05,14,31,22.60
2016,08,05,14,32,22.50
2016,08,05,14,33,22.40
2016,08,05,14,34,22.40
2016,08,05,14,35,22.40
2016,08,05,14,36,22.40
2016,08,05,14,37,22.40
2016,08,05,14,38,22.30
2016,08,05,14,39,22.30
2016,08,05,14,40,22.30
2016,08,05,14,41,22.30
2016,08,05,14,42,22.40
2016,08,05,14,43,22.40
2016,08,05,14,44,22.50
2016,08,05,14,45,22.50
2016,08,05,14,46,22.60
2016,08,05,14,47,22.60
2016,08,05,14,48,22.60
2016,08,05,14,49,22.60
2016,08,05,14,50,22.60
2016,08,05,14,51,22.70
2016,08,05,14,52,22.60
2016,08,05,14,53,22.60
2016,08,05,14,54,22.60
2016,08,05,14,55,22.60
2016,08,05,14,56,22.60
2016,08,05,14,57,22.60
2016,08,05,14,58,22.70
2016,08,05,14,59,22.70
2016,08,05,15,00,22.70
2016,08,05,15,01,22.80
2016,08,05,15,02,22.70
2016,08,05,15,03,22.70
2016,08,05,15,04,22.70
2016,08,05,15,05,22.70
2016,08,05,15,06,22.70
2016,08,05,15,07,22.70
2016,08,05,15,08,22.70
2016,08,05,15,09,22.80
2016,08,05,15,10,22.80
2016,08,05,15,11,22.80
2016,08,05,15,12,22.80
2016,08,05,15,13,22.80
2016,08,05,15,14,22.80
2016,08,05,15,15,22.80
2016,08,05,15,16,22.80
2016,08,05,15,17,22.80
2016,08,05,15,18,22.80
2016,08,05,15,19,22.80
2016,08,05,15,20,22.80
2016,08,05,15,21,22.80
2016,08,05,15,22,22.80
2016,08,05,15,23,22.70
2016,08,05,15,24,22.60
2016,08,05,15,25,22.60
2016,08,05,15,26,22.70
2016,08,05,15,27,22.70
2016,08,05,15,28,22.70
2016,08,05,15,29,22.70
2016,08,05,15,30,22.60
2016,08,05,15,31,22.50
2016,08,05,15,32,22.40
2016,08,05,15,33,22.30
2016,08,05,15,34,22.30
2016,08,05,15,35,22.30
2016,08,05,15,36,22.30
2016,08,05,15,37,22.20
2016,08,05,15,38,22.10
2016,08,05,15,39,22.10
2016,08,05,15,40,22.10
2016,08,05,15,41,22.10
2016,08,05,15,42,22.10
2016,08,05,15,43,22.20
2016,08,05,15,44,22.20
2016,08,05,15,45,22.10
2016,08,05,15,46,22.10
2016,08,05,15,47,22.00
2016,08,05,15,48,22.00
2016,08,05,15,49,22.00
2016,08,05,15,50,22.00
2016,08,05,15,51,22.10
2016,08,05,15,52,22.20
2016,08,05,15,53,22.20
2016,08,05,15,54,22.20
2016,08,05,15,55,22.30
2016,08,05,15,56,22.40
2016,08,05,15,57,22.50
2016,08,05,15,58,22.50
2016,08,05,15,59,22.50
2016,08,05,16,00,22.40
2016,08,05,16,01,22.40
2016,08,05,16,02,22.30
2016,08,05,16,03,22.20
2016,08,05,16,04,22.20
2016,08,05,16,05,22.20
2016,08,05,16,06,22.20
2016,08,05,16,07,22.30
2016,08,05,16,08,22.30
2016,08,05,16,09,22.20
2016,08,05,16,10,22.20
2016,08,05,16,11,22.10
2016,08,05,16,12,22.10
2016,08,05,16,13,22.00
2016,08,05,16,14,21.90
2016,08,05,16,15,21.90
2016,08,05,16,16,21.90
2016,08,05,16,17,21.90
2016,08,05,16,18,21.90
2016,08,05,16,19,21.70
2016,08,05,16,20,21.60
2016,08,05,16,21,21.50
2016,08,05,16,22,21.40
2016,08,05,16,23,21.40
2016,08,05,16,24,21.40
2016,08,05,16,25,21.50
2016,08,05,16,26,21.60
2016,08,05,16,27,21.70
2016,08,05,16,28,21.70
2016,08,05,16,29,21.70
2016,08,05,16,30,21.80
2016,08,05,16,31,21.80
2016,08,05,16,32,21.80
2016,08,05,16,33,21.90
2016,08,05,16,34,22.00
2016,08,05,16,35,22.00
2016,08,05,16,36,22.00
2016,08,05,16,37,22.10
2016,08,05,16,38,22.10
2016,08,05,16,39,22.10
2016,08,05,16,40,22.20
2016,08,05,16,41,22.20
2016,08,05,16,42,22.30
2016,08,05,16,43,22.50
2016,08,05,16,44,22.60
2016,08,05,16,45,22.70
2016,08,05,16,46,22.60
2016,08,05,16,47,22.70
2016,08,05,16,48,22.70
2016,08,05,16,49,22.70
2016,08,05,16,50,22.70
2016,08,05,16,51,22.70
2016,08,05,16,52,22.70
2016,08,05,16,53,22.60
2016,08,05,16,54,22.40
2016,08,05,16,55,22.30
2016,08,05,16,56,22.20
2016,08,05,16,57,22.20
2016,08,05,16,58,22.30
2016,08,05,16,59,22.20
2016,08,05,17,00,22.30
2016,08,05,17,01,22.30
2016,08,05,17,02,22.30
2016,08,05,17,03,22.30
2016,08,05,17,04,22.20
2016,08,05,17,05,22.20
2016,08,05,17,06,22.20
2016,08,05,17,07,22.20
2016,08,05,17,08,22.10
2016,08,05,17,09,22.20
2016,08,05,17,10,22.20
2016,08,05,17,11,22.20
2016,08,05,17,12,22.20
2016,08,05,17,13,22.20
2016,08,05,17,14,22.20
2016,08,05,17,15,22.20
2016,08,05,17,16,22.20
2016,08,05,17,17,22.30
2016,08,05,17,18,22.40
2016,08,05,17,19,22.50
2016,08,05,17,20,22.50
2016,08,05,17,21,22.50
2016,08,05,17,22,22.40